Showing default

METEOR 2-21, 22782

Orbit data source: Space-Track

METEOR 2-21, 22782 is a Commonwealth of Independent States-origin payload satellite in LEO that was launched on Tue, 31 Aug 1993 UTC via a TSIKLON-3 launch vehicle from the Plesetsk Missile And Space Complex (PKMTR). Payload-class satellites include a variety of spacecraft equipped with specific instruments for various scientific and technological missions. These include communications satellites like Starlink; space stations such as the ISS; scientific satellites like the Hubble; Earth observation satellites from companies like Planet Labs, Umbra, and HawkEye 360; GPS; miniature CubeSats for education and research; and military/defense satellites.

Loading next visibility...
Identifier
22782, 1993-055A
Orbit
LEO
Country
Flag of CISCIS
Related business
Manufacturer
VNIIEM
Mission
Civil Cal/Sci
Bus & Motor
METEOR-2, Unknown motor
Mass
~1,500 kg wet, ~1,500 kg dry
Launch date (UTC)
1993-08-31 (33 years ago)
Launch vehicle
TSIKLON-3
Launch site
Plesetsk Missile And Space Complex (PKMTR)
Object type
Payload
Rocket body
Debris
Shape & HBR
Cyl + 2 Pan, 2.4 m
Radar Cross Section
5.718 m², Large (>1 m²)

Expand to show TLE details & history
Last TLE update: 5 hours ago

TLE from 5 hours ago
0 METEOR 2-21
1 22782U 93055A   26264.60280024  .00000000  00000-0 -13067-4 0  9997
2 22782  82.5493 218.1994 0021100 300.1860 233.5656 13.84032533669384
Epoch: 2026-09-21T14:28Z
TLE epoch observation values (Epoch: 2026-09-21T14:28:01.940Z)
Latitude
6.31141°
Longitude
179.88659°
Altitude
961.129 km
Speed
7.367 km/s
True Right ascension
02h 29m 29s
True Declination
6° 16' 30"
Sunlit
Object was in full shadow at epoch
Visualization orbit readout
Latitude
Unknown
Longitude
Unknown
Altitude
Unknown
Speed
Unknown
Apparent Right ascension
Unknown
Apparent Declination
Unknown
Sunlit
N/A
Visualization observer readout
Local Sidereal Time
12:53:35
Azimuth
Unknown
Elevation
Unknown
Doppler factor
Unknown
Orbital elements
Apogee altitude
962.226 km
Perigee altitude
931.315 km
Semi-major axis
7,324.907 km
Eccentricity
0.00211
Inclination
82.5493°
RAAN
218.1994°
Arg. of periapsis
300.186°
True anomaly
233.37138°
Mean anomaly
233.5656°
Eccentric anomaly
233.46846°
Mean motion
3.4621 °/min
Orbital period
103.98 mins
BSTAR
-0.000013067
Loading maneuver chart data...
Computing Atmospheric mass density...
Loading historical data...
Loading historical data...
Loading historical data...
Loading historical data...
Loading historical data...
Loading historical data...
Loading historical data...
Other satellites on launch #55 in the year 1993 (1993-08-31 UTC)

Documentation

Showing up to 5 results
|